Tracking 35048 objects as of 19-Aug-2026
HD Live streaming from Space Station
objects crossing your sky now

CSTP-4.3

Track CSTP-4.3 now!
10-day predictions
CSTP-4.3 is classified as:


NORAD ID: 64882
Int'l Code: 2025-155G
Launch date: July 25, 2025
Source: (TBD)
Launch site: VOSTOCHNY COSMODROME (VOSTO)

Uplink (MHz):
Downlink (MHz): 437.160
Beacon (MHz):
Mode: LoRa
Call sign:
Status: Active

Your satellite tracking list
Your tracking list is empty




NASA's NSSDC Master Catalog

Two Line Element Set (TLE):
1 64882U 25155G   26231.27354919  .00009481  00000-0  32413-3 0  9998
2 64882  97.4645 200.0690 0005753 331.2369  28.8554 15.30477168 90406
Source of the keplerian elements: AFSPC